Weather History for VABB - October, 2012

Change the Weather History Date:

Wednesday, October 17, 2012

  Actual Average Record
Temperature  
Mean Temperature 84 °F -  
Max Temperature 94 °F 90 °F 98 °F (1997)
Min Temperature 74 °F 74 °F 69 °F (2004)
Cooling Degree Days 19    
Growing Degree Days 34 (Base 50)    
Moisture  
Dew Point 68 °F    
Average Humidity 57    
Maximum Humidity 79    
Minimum Humidity 28    
Precipitation  
Precipitation 0.00 in - - ()
Sea Level Pressure  
Sea Level Pressure 29.91 in    
Wind  
Wind Speed 4 mph ()    
Max Wind Speed 10 mph    
Max Gust Speed -    
Visibility 1.9 miles    
Events      
Averages and records for this station are not official NWS values.
T = Trace of Precipitation, MM = Missing Value Source: Averaged Metar Reports

Daily Weather History Graph

Daily Weather History Graph

Search for Another Location

Airport or City:

Trip Planner

Search our weather history database for the weather conditions in past years. The results will help you decide how hot, cold, wet, or windy it might be!

Date:

Astronomy

Oct. 17, 2012 Rise Set
Actual Time 6:33 AM IST 6:14 PM IST
Civil Twilight 6:11 AM IST 6:36 PM IST
Nautical Twilight 5:45 AM IST 7:01 PM IST
Astronomical Twilight 5:20 AM IST 7:27 PM IST
Moon 8:14 AM IST (10/17) 7:48 PM IST (10/17)
Length of Visible Light 12h 24m
Length of Day
11h 40m
Waxing Crescent, 5% of the Moon is Illuminated
Oct 17
Waxing Crescent
Oct 22
First Quarter
Oct 30
Full
Nov 7
Last Quarter
Nov 14
New

Hourly Weather History & Observations

Time (IST) Temp. Heat Index Dew Point Humidity Pressure Visibility Wind Dir Wind Speed Gust Speed Precip Events Conditions
12:10 AM 84.2 °F 88.4 °F 69.8 °F 62% 29.92 in 1.6 mi ENE 3.5 mph - N/A   Smoke
12:40 AM 84.2 °F 89.6 °F 71.6 °F 66% 29.92 in 1.4 mi Calm Calm - N/A   Smoke
1:10 AM 82.4 °F 87.2 °F 71.6 °F 70% 29.92 in 1.4 mi Calm Calm - N/A   Smoke
1:40 AM 82.4 °F 86.3 °F 69.8 °F 66% 29.92 in 1.6 mi NNE 4.6 mph - N/A   Smoke
2:10 AM 82.4 °F 86.3 °F 69.8 °F 66% 29.92 in 1.6 mi Calm Calm - N/A   Smoke
2:30 AM 77 °F - 72 °F 79% 29.91 in 1 mi Calm Calm - -   Haze
2:40 AM 82.4 °F 86.3 °F 69.8 °F 66% 29.89 in 1.6 mi East 3.5 mph - N/A   Smoke
3:10 AM 82.4 °F 86.3 °F 69.8 °F 66% 29.89 in 1.6 mi Calm Calm - N/A   Smoke
3:40 AM 82.4 °F 86.3 °F 69.8 °F 66% 29.89 in 1.6 mi ESE 3.5 mph - N/A   Smoke
4:10 AM 80.6 °F 84.6 °F 71.6 °F 74% 29.89 in 1.6 mi East 3.5 mph - N/A   Smoke
4:40 AM 80.6 °F 84.6 °F 71.6 °F 74% 29.89 in 1.6 mi East 8.1 mph - N/A   Smoke
5:10 AM 80.6 °F 84.6 °F 71.6 °F 74% 29.92 in 1.6 mi East 5.8 mph - N/A   Smoke
5:30 AM 77 °F - 72 °F 79% 29.92 in 1 mi Calm Calm - -   Haze
5:40 AM 78.8 °F - 71.6 °F 78% 29.92 in 1.6 mi East 3.5 mph - N/A   Smoke
6:40 AM 80.6 °F 83.9 °F 69.8 °F 70% 29.95 in 1.9 mi Variable 3.5 mph - N/A   Smoke
7:10 AM 80.6 °F 83.9 °F 69.8 °F 70% 29.95 in 2.2 mi Variable 3.5 mph - N/A   Smoke
7:40 AM 80.6 °F 83.9 °F 69.8 °F 70% 29.95 in 1.9 mi ENE 3.5 mph - N/A   Smoke
8:10 AM 82.4 °F 86.3 °F 69.8 °F 66% 29.95 in 1.6 mi Variable 3.5 mph - N/A   Smoke
8:30 AM 82 °F - 73 °F 68% 29.97 in 1 mi Calm Calm - -   Haze
8:40 AM 80.6 °F 83.9 °F 69.8 °F 70% 29.98 in 1.4 mi ENE 4.6 mph - N/A   Smoke
9:40 AM 86.0 °F 90.4 °F 69.8 °F 58% 29.98 in 1.4 mi Variable 3.5 mph - N/A   Smoke
10:40 AM 89.6 °F 92.2 °F 66.2 °F 46% 29.98 in 1.6 mi ESE 4.6 mph - N/A   Smoke
11:10 AM 91.4 °F 92.1 °F 62.6 °F 38% 29.95 in 1.7 mi SE 5.8 mph - N/A   Smoke
11:30 AM 91 °F - 68 °F 37% 29.94 in 1 mi NE 3.5 mph - -   Smoke
12:10 PM 95.0 °F 93.7 °F 57.2 °F 28% 29.92 in 2.2 mi Variable 3.5 mph - N/A   Smoke
12:40 PM 95.0 °F 93.7 °F 57.2 °F 28% 29.92 in 2.2 mi SE 5.8 mph - N/A   Smoke
1:10 PM 93.2 °F 97.7 °F 68.0 °F 44% 29.89 in 2.2 mi Variable 5.8 mph - N/A   Smoke
1:40 PM 93.2 °F 97.7 °F 68.0 °F 44% 29.89 in 2.2 mi West 9.2 mph - N/A   Smoke
2:10 PM 93.2 °F 97.7 °F 68.0 °F 44% 29.86 in 2.2 mi West 9.2 mph - N/A   Smoke
2:40 PM 93.2 °F 97.7 °F 68.0 °F 44% 29.86 in 2.2 mi West 10.4 mph - N/A   Smoke
3:10 PM 93.2 °F 94.1 °F 62.6 °F 36% 29.86 in 2.2 mi West 10.4 mph - N/A   Smoke
3:40 PM 93.2 °F 93.3 °F 60.8 °F 34% 29.86 in 2.5 mi WNW 9.2 mph - N/A   Smoke
4:40 PM 91.4 °F 92.1 °F 62.6 °F 38% 29.86 in 3.1 mi WNW 9.2 mph - N/A   Smoke
5:10 PM 91.4 °F 93.2 °F 64.4 °F 41% 29.86 in 3.1 mi NW 6.9 mph - N/A   Smoke
5:30 PM 90 °F - 69 °F 41% 29.85 in 2 mi NW 4.6 mph - -   Scattered Clouds
5:40 PM 91.4 °F 94.0 °F 66.2 °F 43% 29.86 in 3.1 mi NW 8.1 mph - N/A   Smoke
6:10 PM 89.6 °F 98.2 °F 73.4 °F 59% 29.86 in 2.5 mi NNW 8.1 mph - N/A   Smoke
6:40 PM 87.8 °F 92.6 °F 69.8 °F 55% 29.86 in 2.2 mi NNW 5.8 mph - N/A   Smoke
7:10 PM 87.8 °F 92.6 °F 69.8 °F 55% 29.86 in 2.2 mi NNW 6.9 mph - N/A   Smoke
7:40 PM 87.8 °F 92.6 °F 69.8 °F 55% 29.89 in 2.2 mi NNW 9.2 mph - N/A   Smoke
8:10 PM 87.8 °F 91.4 °F 68.0 °F 52% 29.89 in 2.2 mi NNW 8.1 mph - N/A   Smoke
8:30 PM 85 °F - 69 °F 50% 29.89 in 1 mi NE 3.5 mph - -   Smoke
9:10 PM 86.0 °F 90.4 °F 69.8 °F 58% 29.92 in 1.9 mi NNE 4.6 mph - N/A   Smoke
9:40 PM 86.0 °F 90.4 °F 69.8 °F 58% 29.92 in 1.9 mi NE 4.6 mph - N/A   Smoke
10:10 PM 86.0 °F 89.4 °F 68.0 °F 55% 29.92 in 2.2 mi NNE 4.6 mph - N/A   Smoke
10:40 PM 86.0 °F 86.1 °F 60.8 °F 43% 29.92 in 2.5 mi Calm Calm - N/A   Smoke
11:30 PM 78 °F - 72 °F 78% 29.91 in 1 mi Calm Calm - -   Haze
11:40 PM 84.2 °F 87.3 °F 68.0 °F 58% 29.92 in 1.7 mi Calm Calm - N/A   Smoke